FW4608 Weather Reports


time (UTC)temp
C
wind
direction
speed
KPH
gust
KPH
rain 1hr
cm
rain 24hr
cm
rain mn
cm
humidity
%
barometer
mb
20260831175017 33 115 0.0 6.4 0.00 0.71 0.00 73 1017.6
20260831174514 33 275 0.0 8.0 0.00 0.71 0.00 78 1017.7
20260831174011 32 139 0.0 8.0 0.00 0.71 0.00 79 1017.7
20260831173510 31 204 0.0 6.4 0.00 0.71 0.00 80 1017.7
20260831173009 31 311 0.0 6.4 0.00 0.71 0.00 84 1018.0
20260831172609 30 108 0.0 4.8 0.00 0.71 0.00 81 1018.1
20260831172008 30 221 0.0 4.8 0.00 0.71 0.00 81 1018.1
20260831171509 31 200 0.0 6.4 0.00 0.71 0.00 82 1018.2
20260831171008 31 217 0.0 6.4 0.00 0.71 0.00 82 1018.2
20260831170507 31 316 0.0 6.4 0.00 0.71 0.00 80 1018.1
20260831170007 31 140 0.0 3.2 0.00 0.71 0.00 81 1018.1
20260831165506 31 122 0.0 3.2 0.00 0.71 0.00 80 1018.2
20260831165005 31 309 0.0 3.2 0.00 0.71 0.00 81 1018.4
20260831164504 31 343 0.0 6.4 0.00 0.71 0.00 80 1018.3
20260831164005 31 219 0.0 6.4 0.00 0.71 0.00 80 1018.3
20260831163504 31 246 0.0 3.2 0.00 0.71 0.00 80 1018.4
20260831163007 31 209 0.0 1.6 0.00 0.71 0.00 81 1018.5
20260831162503 31 130 0.0 6.4 0.00 0.71 0.00 80 1018.4
20260831162002 32 279 0.0 6.4 0.00 0.71 0.00 79 1018.5
20260831161504 31 106 0.0 6.4 0.00 0.71 0.00 80 1018.5
20260831161103 31 322 0.0 6.4 0.00 0.71 0.00 81 1018.5
20260831160559 31 343 0.0 3.2 0.00 0.71 0.00 78 1018.7
20260831160105 32 122 0.0 1.6 0.00 0.71 0.00 79 1018.6
20260831155558 32 179 0.0 3.2 0.00 0.71 0.00 77 1018.6
20260831155057 32 23 0.0 3.2 0.00 0.71 0.00 75 1018.6
20260831154607 32 292 0.0 3.2 0.00 0.71 0.00 76 1018.8
20260831154052 32 307 0.0 3.2 0.00 0.71 0.00 76 1018.8
20260831153552 32 300 0.0 1.6 0.00 0.71 0.00 77 1018.8
20260831153050 32 257 0.0 1.6 0.00 0.71 0.00 77 1018.7
20260831152551 32 304 0.0 3.2 0.00 0.71 0.00 73 1018.8
20260831152048 32 160 0.0 3.2 0.00 0.71 0.00 77 1018.7
20260831151547 31 153 0.0 4.8 0.00 0.71 0.00 78 1018.9
20260831151043 31 141 0.0 4.8 0.00 0.71 0.00 77 1018.8
20260831150543 31 15 0.0 3.2 0.00 0.71 0.00 79 1018.7
20260831150040 31 320 0.0 3.2 0.00 0.71 0.00 78 1018.7
20260831145538 30 296 0.0 3.2 0.00 0.71 0.00 80 1018.8
20260831145036 30 191 1.6 3.2 0.00 0.71 0.00 81 1018.7
20260831144536 30 228 0.0 3.2 0.00 0.71 0.00 82 1018.6
20260831144035 30 246 0.0 3.2 0.00 0.71 0.00 82 1018.6
20260831143535 30 229 0.0 3.2 0.00 0.71 0.00 83 1018.6
20260831143031 30 216 0.0 3.2 0.00 0.71 0.00 83 1018.5
20260831142530 29 314 0.0 1.6 0.00 0.71 0.00 83 1018.4
20260831142026 29 252 0.0 3.2 0.00 0.71 0.00 85 1018.4
20260831141528 28 238 0.0 1.6 0.00 0.71 0.00 85 1018.3
20260831141024 28 245 0.0 3.2 0.00 0.71 0.00 85 1018.4
20260831140522 28 238 0.0 3.2 0.00 0.71 0.00 87 1018.3
20260831140034 27 241 0.0 1.6 0.00 0.71 0.00 88 1018.3
20260831135520 27 242 0.0 1.6 0.00 0.71 0.00 89 1018.2
20260831135023 27 110 0.0 0.0 0.00 0.71 0.00 90 1018.1
20260831134516 26 110 0.0 0.0 0.00 0.71 0.00 90 1017.9
20260831134014 26 110 0.0 1.6 0.00 0.71 0.00 90 1017.9
20260831133514 26 110 0.0 1.6 0.00 0.71 0.00 91 1017.9
20260831133011 26 141 0.0 1.6 0.00 0.71 0.00 93 1017.8
20260831132510 25 141 0.0 1.6 0.00 0.71 0.00 94 1017.8
20260831132009 25 132 0.0 1.6 0.00 0.71 0.00 95 1017.7
20260831131511 25 124 0.0 1.6 0.00 0.71 0.00 95 1017.8
20260831131008 25 321 0.0 0.0 0.00 0.71 0.00 95 1017.7
20260831130506 25 321 0.0 1.6 0.00 0.71 0.00 95 1017.7
20260831130008 25 321 0.0 1.6 0.00 0.71 0.00 95 1017.8
20260831125506 25 309 0.0 0.0 0.00 0.71 0.00 95 1017.7
20260831125004 25 309 0.0 0.0 0.00 0.71 0.00 95 1017.7
20260831124503 25 309 0.0 0.0 0.00 0.71 0.00 95 1017.7
20260831124001 25 309 0.0 0.0 0.00 0.71 0.00 95 1017.6
20260831123600 25 309 0.0 0.0 0.00 0.71 0.00 95 1017.6
20260831123100 25 309 0.0 0.0 0.00 0.71 0.00 95 1017.6
20260831122557 25 309 0.0 0.0 0.00 0.71 0.00 95 1017.5
20260831122059 25 309 0.0 0.0 0.00 0.71 0.00 95 1017.5
20260831121555 25 309 0.0 0.0 0.00 0.71 0.00 95 1017.5
20260831121054 24 309 0.0 0.0 0.00 0.71 0.00 95 1017.4
20260831120553 24 309 0.0 0.0 0.00 0.71 0.00 95 1017.4
20260831120057 24 309 0.0 0.0 0.00 0.71 0.00 95 1017.4
20260831115551 24 309 0.0 0.0 0.00 0.71 0.00 95 1017.2
20260831115049 23 309 0.0 0.0 0.00 0.71 0.00 95 1017.2
20260831114549 23 309 0.0 0.0 0.00 0.71 0.00 95 1017.2
20260831114052 23 309 0.0 0.0 0.00 0.71 0.00 95 1017.1
20260831113547 23 309 0.0 0.0 0.00 0.71 0.00 95 1017.1
20260831113107 23 309 0.0 0.0 0.00 0.71 0.00 95 1017.2
20260831112548 23 309 0.0 0.0 0.00 0.71 0.00 95 1017.1
20260831112045 23 309 0.0 0.0 0.00 0.71 0.00 95 1017.0
20260831111544 23 309 0.0 0.0 0.00 0.71 0.00 95 1017.0
20260831111044 23 309 0.0 0.0 0.00 0.71 0.00 95 1016.9
20260831110547 23 309 0.0 0.0 0.00 0.71 0.00 95 1016.8
20260831110044 23 309 0.0 0.0 0.00 0.71 0.00 95 1016.7
20260831105542 23 309 0.0 0.0 0.00 0.71 0.00 95 1016.6
20260831105042 23 309 0.0 0.0 0.00 0.71 0.00 95 1016.7
20260831104541 23 309 0.0 0.0 0.00 0.71 0.00 95 1016.7
20260831104042 23 309 0.0 0.0 0.00 0.71 0.00 95 1016.7
20260831103541 23 309 0.0 0.0 0.00 0.71 0.00 95 1016.6
20260831103047 23 309 0.0 0.0 0.00 0.71 0.00 95 1016.6
20260831102541 23 309 0.0 0.0 0.00 0.71 0.00 95 1016.5
20260831102039 23 309 0.0 0.0 0.00 0.71 0.00 95 1016.5
20260831101539 23 309 0.0 0.0 0.00 0.71 0.00 95 1016.4
20260831101037 23 309 0.0 0.0 0.00 0.71 0.00 95 1016.5
20260831100539 23 309 0.0 0.0 0.00 0.71 0.00 95 1016.5
20260831100038 23 309 0.0 0.0 0.00 0.71 0.00 95 1016.4
20260831095535 23 309 0.0 0.0 0.00 0.71 0.00 95 1016.3
20260831095034 23 309 0.0 0.0 0.00 0.71 0.00 95 1016.4
20260831094539 23 309 0.0 0.0 0.00 0.71 0.00 95 1016.3
20260831094036 23 309 0.0 0.0 0.00 0.71 0.00 95 1016.4
20260831093536 23 309 0.0 0.0 0.00 0.71 0.00 95 1016.3
20260831093033 23 309 0.0 0.0 0.00 0.71 0.00 95 1016.4
20260831092531 23 309 0.0 0.0 0.00 0.71 0.00 94 1016.5
20260831092029 23 309 0.0 0.0 0.00 0.71 0.00 94 1016.5
20260831091536 23 309 0.0 0.0 0.00 0.71 0.00 94 1016.4
20260831091030 23 309 0.0 0.0 0.00 0.71 0.00 94 1016.3
20260831090530 23 309 0.0 0.0 0.00 0.71 0.00 94 1016.2
20260831090027 23 309 0.0 0.0 0.00 0.71 0.00 94 1016.2
20260831085530 23 309 0.0 0.0 0.00 0.71 0.00 94 1016.2
20260831085027 23 309 0.0 0.0 0.00 0.71 0.00 94 1016.2
20260831084529 23 309 0.0 0.0 0.00 0.71 0.00 94 1016.2
20260831084024 23 309 0.0 0.0 0.00 0.71 0.00 94 1016.2
20260831083524 23 309 0.0 0.0 0.00 0.71 0.00 94 1016.2
20260831083023 23 309 0.0 0.0 0.00 0.71 0.00 94 1016.3
20260831082521 23 309 0.0 0.0 0.00 0.71 0.00 94 1016.1
20260831082019 23 309 0.0 0.0 0.00 0.71 0.00 94 1016.2
20260831081522 23 309 0.0 0.0 0.00 0.71 0.00 94 1016.2
20260831081019 23 309 0.0 0.0 0.00 0.71 0.00 94 1016.3
20260831080518 23 309 0.0 0.0 0.00 0.71 0.00 94 1016.3
20260831080029 23 309 0.0 0.0 0.00 0.71 0.00 94 1016.3
20260831075516 23 309 0.0 0.0 0.00 0.71 0.00 94 1016.3
20260831075016 24 309 0.0 0.0 0.00 0.71 0.00 94 1016.3
20260831074515 23 309 0.0 0.0 0.00 0.71 0.00 94 1016.4
20260831074015 23 309 0.0 0.0 0.00 0.71 0.00 94 1016.5
20260831073514 23 309 0.0 0.0 0.00 0.71 0.00 94 1016.5
20260831073014 23 309 0.0 0.0 0.00 0.71 0.00 94 1016.6
20260831072516 23 309 0.0 0.0 0.00 0.71 0.00 94 1016.6
20260831072011 24 309 0.0 0.0 0.00 0.71 0.00 94 1016.5
20260831071510 24 309 0.0 0.0 0.00 0.71 0.00 94 1016.6
20260831071011 23 309 0.0 0.0 0.00 0.71 0.00 94 1016.6
20260831070512 23 309 0.0 0.0 0.00 0.71 0.00 94 1016.7
20260831070012 24 309 0.0 0.0 0.00 0.71 0.00 94 1016.6
20260831065508 24 309 0.0 0.0 0.00 0.71 0.00 94 1016.7
20260831065007 24 309 0.0 0.0 0.00 0.71 0.00 94 1016.6
20260831064507 24 309 0.0 0.0 0.00 0.71 0.00 94 1016.6
20260831064008 24 309 0.0 0.0 0.00 0.71 0.00 94 1016.7
20260831063505 24 309 0.0 0.0 0.00 0.71 0.00 94 1016.8
20260831063007 24 309 0.0 0.0 0.00 0.71 0.00 94 1016.9
20260831062503 24 309 0.0 0.0 0.00 0.71 0.00 94 1016.8
20260831062003 24 309 0.0 0.0 0.00 0.71 0.00 94 1016.9
20260831061501 24 309 0.0 0.0 0.00 0.71 0.00 94 1016.9
20260831061100 24 309 0.0 0.0 0.00 0.71 0.00 94 1016.9
20260831060559 24 309 0.0 0.0 0.00 0.71 0.00 94 1017.0
20260831060058 24 309 0.0 0.0 0.00 0.71 0.00 94 1017.0
20260831055557 24 309 0.0 0.0 0.00 0.71 0.00 94 1017.0
20260831055057 24 309 0.0 0.0 0.00 0.71 0.00 94 1016.9
20260831054557 24 309 0.0 0.0 0.00 0.71 0.00 93 1017.0
20260831054057 24 309 0.0 0.0 0.00 0.71 0.00 93 1017.1
20260831053555 24 309 0.0 0.0 0.00 0.71 0.00 93 1017.0
20260831053056 24 309 0.0 0.0 0.00 0.71 0.00 93 1017.0
20260831052553 24 309 0.0 0.0 0.00 0.71 0.00 94 1017.0
20260831052053 24 309 0.0 0.0 0.00 0.71 0.00 93 1017.1
20260831051559 24 309 0.0 0.0 0.00 0.71 0.00 93 1017.1
20260831051052 24 309 0.0 0.0 0.00 0.71 0.00 93 1017.1
20260831050551 24 309 0.0 0.0 0.00 0.71 0.00 93 1017.0
20260831050053 24 309 0.0 0.0 0.00 0.71 0.00 93 1017.0
20260831045550 24 309 0.0 0.0 0.00 0.71 0.00 93 1017.0
20260831045049 24 309 0.0 0.0 0.00 0.71 0.00 93 1017.1
20260831044554 24 309 0.0 0.0 0.00 0.71 0.00 93 1017.0
20260831044047 24 309 0.0 0.0 0.00 0.71 0.00 93 1017.0
20260831043547 24 309 0.0 0.0 0.00 0.71 0.00 93 1017.0
20260831043045 24 309 0.0 0.0 0.00 0.71 0.00 93 1017.0
20260831042549 24 309 0.0 0.0 0.00 0.71 0.00 93 1017.0
20260831042047 24 309 0.0 0.0 0.00 0.71 0.00 93 1017.0
20260831041548 24 309 0.0 0.0 0.00 0.71 0.00 93 1017.0
20260831041042 24 309 0.0 0.0 0.00 0.71 0.00 93 1017.1
20260831040541 24 309 0.0 0.0 0.00 0.71 0.00 93 1017.1
20260831040040 24 309 0.0 0.0 0.00 0.71 0.00 93 1017.1
20260831035541 24 309 0.0 0.0 0.00 0.71 0.71 93 1017.2
20260831035038 24 309 0.0 0.0 0.00 0.71 0.71 93 1017.2
20260831034546 24 309 0.0 0.0 0.00 0.71 0.71 93 1017.3
20260831034038 25 309 0.0 0.0 0.00 0.71 0.71 93 1017.4
20260831033538 25 309 0.0 0.0 0.00 0.71 0.71 93 1017.4
20260831033038 24 309 0.0 0.0 0.00 0.71 0.71 93 1017.5
20260831032537 25 309 0.0 0.0 0.00 0.71 0.71 93 1017.5
20260831032039 24 309 0.0 0.0 0.00 0.71 0.71 93 1017.5
20260831031536 25 309 0.0 0.0 0.00 0.71 0.71 93 1017.6
20260831031034 24 309 0.0 0.0 0.00 0.71 0.71 93 1017.6
20260831030534 24 309 0.0 0.0 0.00 0.71 0.71 93 1017.6
20260831030033 24 309 0.0 0.0 0.00 0.71 0.71 93 1017.7
20260831025533 24 309 0.0 0.0 0.00 0.71 0.71 93 1017.7
20260831025033 24 309 0.0 0.0 0.00 0.71 0.71 93 1017.7
20260831024535 24 309 0.0 0.0 0.00 0.71 0.71 93 1017.7
20260831024031 24 309 0.0 0.0 0.00 0.71 0.71 93 1017.8
20260831023531 24 309 0.0 0.0 0.00 0.71 0.71 92 1017.9
20260831023029 24 309 0.0 0.0 0.00 0.71 0.71 92 1018.0
20260831022529 24 309 0.0 0.0 0.00 0.71 0.71 92 1017.9
20260831022028 25 309 0.0 0.0 0.00 0.71 0.71 92 1017.8
20260831021530 25 309 0.0 0.0 0.00 0.71 0.71 92 1017.9
20260831021027 25 309 0.0 0.0 0.00 0.71 0.71 92 1017.9
20260831020526 25 309 0.0 0.0 0.00 0.71 0.71 92 1017.9
20260831020026 25 309 0.0 0.0 0.00 0.71 0.71 91 1018.1
20260831015524 25 309 0.0 0.0 0.00 0.71 0.71 91 1018.1
20260831015026 25 309 0.0 0.0 0.00 0.71 0.71 91 1018.0
20260831014528 25 309 0.0 0.0 0.00 0.71 0.71 91 1018.0
20260831014023 25 309 0.0 0.0 0.00 0.71 0.71 91 1018.0
20260831013522 25 309 0.0 0.0 0.00 0.71 0.71 91 1017.9
20260831013022 25 309 0.0 0.0 0.00 0.71 0.71 91 1017.8
20260831012524 25 309 0.0 0.0 0.00 0.71 0.71 90 1017.9
20260831012020 25 309 0.0 0.0 0.00 0.71 0.71 90 1017.9
20260831011533 25 309 0.0 0.0 0.00 0.71 0.71 90 1017.9
20260831011018 25 309 0.0 0.0 0.00 0.71 0.71 90 1017.8
20260831010518 25 309 0.0 0.0 0.00 0.71 0.71 90 1017.8
20260831010016 25 309 0.0 0.0 0.00 0.71 0.71 90 1017.9
20260831005517 25 309 0.0 0.0 0.00 0.71 0.71 90 1017.8
20260831005017 25 309 0.0 0.0 0.00 0.71 0.71 89 1017.8
20260831004516 25 309 0.0 0.0 0.00 0.71 0.71 89 1017.7
20260831004018 25 309 0.0 0.0 0.00 0.71 0.71 89 1017.7
20260831003517 25 314 0.0 0.0 0.00 0.71 0.71 89 1017.5
20260831003014 25 314 0.0 0.0 0.00 0.71 0.71 89 1017.4
20260831002512 25 314 0.0 0.0 0.00 0.71 0.71 88 1017.3
20260831002012 25 314 0.0 0.0 0.00 0.71 0.71 88 1017.4
20260831001511 25 314 0.0 0.0 0.00 0.71 0.71 88 1017.4
20260831001011 26 314 0.0 0.0 0.00 0.71 0.71 88 1017.3
20260831000510 26 314 0.0 0.0 0.00 0.71 0.71 88 1017.1
20260831000011 26 314 0.0 0.0 0.00 0.71 0.71 88 1017.2
20260830235511 26 314 0.0 0.0 0.00 0.71 0.71 87 1017.4
20260830235008 26 314 0.0 0.0 0.00 0.71 0.71 87 1017.3
20260830234508 26 314 0.0 0.0 0.00 0.71 0.71 87 1017.2
20260830234007 26 314 0.0 0.0 0.00 0.71 0.71 87 1017.3
20260830233509 26 313 0.0 0.0 0.00 0.71 0.71 87 1017.3
20260830233006 26 314 0.0 0.0 0.00 0.71 0.71 86 1017.4
20260830232506 26 314 0.0 0.0 0.00 0.71 0.71 86 1017.2
20260830232004 26 314 0.0 0.0 0.00 0.71 0.71 86 1017.2
20260830231504 27 314 0.0 1.6 0.00 0.71 0.71 86 1017.2
20260830231003 27 314 0.0 1.6 0.00 0.71 0.71 85 1017.2
20260830230502 27 359 0.0 1.6 0.00 0.71 0.71 85 1017.2
20260830230002 27 217 0.0 3.2 0.00 0.71 0.71 85 1017.0
20260830225501 27 227 0.0 3.2 0.00 0.71 0.71 85 1017.0
20260830225001 27 306 0.0 1.6 0.00 0.71 0.71 85 1017.0
20260830224601 27 359 0.0 1.6 0.00 0.71 0.71 85 1017.0
20260830224100 27 352 0.0 1.6 0.00 0.71 0.71 85 1017.1
20260830223600 27 299 0.0 4.8 0.00 0.71 0.71 85 1017.1
20260830223112 28 279 0.0 4.8 0.00 0.71 0.71 85 1017.2
20260830222559 28 304 0.0 3.2 0.00 0.71 0.71 85 1016.9
20260830222059 28 304 0.0 6.4 0.00 0.71 0.71 84 1016.9
20260830221557 28 3 0.0 6.4 0.00 0.71 0.71 83 1016.8
20260830221056 29 303 0.0 4.8 0.00 0.71 0.71 84 1016.7
20260830220557 29 332 0.0 4.8 0.00 0.71 0.71 83 1016.6
20260830220056 29 352 0.0 4.8 0.00 0.71 0.71 84 1016.5
20260830215555 29 135 0.0 8.0 0.00 0.71 0.71 84 1016.5
20260830215055 29 207 1.6 8.0 0.00 0.71 0.71 84 1016.5
20260830214612 29 309 1.6 6.4 0.00 0.71 0.71 84 1016.5
20260830214053 29 86 0.0 4.8 0.00 0.71 0.71 85 1016.6
20260830213555 28 216 0.0 4.8 0.00 0.71 0.71 85 1016.5
20260830213053 28 316 0.0 6.4 0.00 0.71 0.71 84 1016.5
20260830212552 28 283 0.0 6.4 0.00 0.71 0.71 84 1016.4
20260830212050 29 90 0.0 4.8 0.00 0.71 0.71 84 1016.5
20260830211550 29 340 0.0 9.7 0.00 0.71 0.71 85 1016.5
20260830211047 28 258 0.0 9.7 0.00 0.71 0.71 85 1016.4
20260830210547 28 85 0.0 6.4 0.00 0.71 0.71 86 1016.6
20260830210046 28 326 0.0 6.4 0.00 0.71 0.71 87 1016.7
20260830205546 27 324 0.0 4.8 0.00 0.71 0.71 89 1016.6
20260830205048 27 129 0.0 6.4 0.00 0.71 0.71 91 1016.7
20260830204554 26 293 0.0 6.4 0.00 0.71 0.71 92 1016.8
20260830204043 26 56 0.0 0.0 0.00 0.71 0.71 92 1016.8
20260830203543 26 56 0.0 1.6 0.00 0.71 0.71 92 1016.9
20260830203041 26 56 0.0 0.0 0.00 0.71 0.71 93 1017.0
20260830202542 25 56 0.0 0.0 0.00 0.71 0.71 93 1016.9
20260830202041 25 56 0.0 1.6 0.00 0.71 0.71 93 1017.1
20260830201540 25 56 0.0 1.6 0.03 0.71 0.71 92 1017.1
20260830201039 24 51 0.0 0.0 0.13 0.71 0.71 92 1017.3
20260830200538 24 59 0.0 3.2 0.15 0.71 0.71 91 1017.3
20260830200046 24 326 0.0 3.2 0.15 0.71 0.71 91 1017.5
20260830195538 24 211 0.0 1.6 0.15 0.71 0.71 91 1017.7
20260830195041 24 228 0.0 3.2 0.15 0.71 0.71 90 1017.8
20260830194537 24 228 0.0 3.2 0.18 0.71 0.71 90 1017.8
20260830194037 25 203 0.0 6.4 0.18 0.71 0.71 90 1017.9
20260830193535 25 113 0.0 6.4 0.20 0.71 0.71 90 1018.0
20260830193035 25 91 0.0 1.6 0.28 0.71 0.71 91 1018.0
20260830192537 25 250 0.0 1.6 0.46 0.71 0.71 91 1018.0
20260830192033 25 211 0.0 3.2 0.69 0.71 0.71 90 1017.9
20260830191534 25 221 0.0 3.2 0.71 0.71 0.71 90 1017.9
20260830191033 26 209 0.0 3.2 0.61 0.61 0.61 89 1017.9
20260830190533 26 312 1.6 4.8 0.58 0.58 0.58 90 1017.8
20260830190043 26 239 0.0 4.8 0.58 0.58 0.58 90 1017.6
20260830185532 26 252 0.0 3.2 0.58 0.58 0.58 90 1017.7
20260830185031 26 242 0.0 3.2 0.58 0.58 0.58 90 1017.7
20260830184530 26 238 0.0 6.4 0.56 0.56 0.56 89 1017.7
20260830184030 27 237 0.0 6.4 0.56 0.56 0.56 87 1017.8
20260830183529 27 137 0.0 3.2 0.53 0.53 0.53 85 1017.8
20260830183029 28 240 0.0 3.2 0.43 0.43 0.43 85 1018.0
20260830182529 30 243 0.0 1.6 0.25 0.25 0.25 83 1017.8
20260830182027 31 68 0.0 4.8 0.03 0.03 0.03 78 1017.8
20260830181527 32 310 0.0 4.8 0.00 0.00 0.00 75 1017.8
20260830181026 32 4 0.0 4.8 0.00 0.00 0.00 71 1017.9
20260830180527 33 146 0.0 8.0 0.00 0.00 0.00 69 1017.9
20260830180028 33 104 0.0 8.0 0.00 0.00 0.00 74 1018.1
20260830175522 33 232 0.0 4.8 0.00 0.00 0.00 74 1018.0